www.pogodaiklimat.ru

Погода и климат >> Архив погоды >> Южная Африка >> Малмсбери


ПОГОДА в Малмсбери

  • Прогноз погоды в Малмсбери
  • Монитор погоды в Малмсбери

АРХИВ ПОГОДЫ в Малмсбери

Время (UTC), дата Ветер
(напр.,м/с)
 
Видим.   Явления Облачность Т
(С)
Тd
(С)
f
(%)
Тe
(С)
Тes
(С)
Комфортность P
(гПа)
Po
(гПа)
Тmin
(С)
Tmax
(С)
R
(мм)
R24
(мм)
S
(см)
03 9.09 З 2 н/о н/о +14.7 +12.7 88 +15 +15 1005.4 +14.5 +35.4
06 9.09 штиль 0 н/о н/о +14.9 +12.4 85 +15 +15 1006.9 +14.4
09 9.09 СВ 2 н/о н/о +18.1 +12.8 71 +19 +19 1005.9 +14.4 +18.4
12 9.09 ЮЗ 2 н/о н/о +23.2 +12.9 52 +26 +26 жарко 1004.2 +14.4 +23.4
15 9.09 Ю 1 н/о н/о +21.4 +14.4 64 +24 +24 комфорт 1003.0 +20.9 +23.4
18 9.09 ЮЗ 1 н/о н/о +15.9 +12.8 82 +17 +17 1002.9 +15.9 +23.4
21 9.09 ЮЗ 1 н/о н/о +14.8 +12.6 87 +15 +15 1003.3 +14.1 +23.4
00 10.09 С 1 н/о н/о +14.0 +12.4 90 +14 +14 1003.7 +13.5 +23.4
03 10.09 СВ 1 н/о н/о +14.5 +12.8 90 +15 +15 1002.9 +13.5 +23.4
06 10.09 штиль 0 н/о н/о +14.5 +13.0 91 +14 +14 1003.1 +13.5
09 10.09 С 2 н/о н/о +20.2 +13.2 64 +23 +23 комфорт 1002.2 +13.5 +20.2
15 10.09 З 3 н/о н/о +19.1 +11.9 63 +20 +20 1001.9 +19.0 +23.9
18 10.09 ЮЗ 1 н/о н/о +15.9 +11.7 76 +17 +17 1003.7 +15.8 +23.9
21 10.09 СЗ 2 н/о н/о +15.3 +10.5 73 +15 +15 1005.4 +15.3 +23.9
00 11.09 СВ 1 н/о н/о +13.6 +10.6 82 +14 +14 999.8 +13.3 +23.9
03 11.09 С 1 н/о н/о +13.8 +10.2 79 +14 +14 1003.4 +12.9 +23.9
06 11.09 СВ 2 н/о н/о +13.4 +10.2 81 +13 +13 1003.5 +12.0
09 11.09 СЗ 3 н/о н/о +18.9 +10.3 57 +20 +20 1002.8 +12.0 +19.4
12 11.09 З 3 н/о н/о +20.9 +9.3 47 +23 +23 комфорт 1001.8 +12.0 +22.1
15 11.09 З 3 н/о н/о +20.1 +10.6 54 +22 +22 комфорт 1001.4 +19.8 +22.1
18 11.09 ЮЗ 1 н/о н/о +15.4 +11.8 79 +16 +16 1002.8 +15.4 +22.1
21 11.09 штиль 0 н/о н/о +14.4 +11.9 85 +14 +14 1003.4 +14.4 +22.1
00 12.09 С 1 н/о н/о +13.7 +11.4 86 +14 +14 1002.6 +13.6 +22.1
03 12.09 С 2 н/о н/о +14.0 +11.1 83 +14 +14 1002.0 +13.2 +22.1
06 12.09 С 3 н/о н/о +12.8 +9.6 81 +12 +12 1003.2 +12.8 0.4
09 12.09 СЗ 3 н/о н/о +13.9 +10.7 81 +13 +13 1004.3 +11.7 +14.0
12 12.09 ЮЗ 4 н/о н/о +15.7 +8.2 61 +15 +15 1004.8 +11.7 +16.0 5
15 12.09 ЮЗ 4 н/о н/о +14.8 +5.6 54 +14 +14 1007.0 +14.4 +16.3
18 12.09 С 2 н/о н/о +11.7 +6.4 70 +11 +11 1008.2 +10.7 +16.3 5
21 12.09 С 2 н/о н/о +10.5 +7.2 80 +9 +9 1009.8 +10.5 +16.3
00 13.09 С 2 н/о н/о +10.1 +8.5 90 +9 +9 1010.3 +10.1 +16.3 5
03 13.09 штиль 0 н/о н/о +10.3 +9.5 95 +9 +9 1010.3 +9.5 +16.3
06 13.09 штиль 0 н/о н/о +10.6 +9.8 95 +10 +10 1011.8 +9.1 6
09 13.09 Ю 1 н/о н/о +14.9 +6.7 58 +16 +16 1012.6 +9.1 +14.9
12 13.09 ЮЗ 2 н/о н/о +16.9 +5.0 45 +17 +17 1010.6 +9.1 +17.1
15 13.09 ЮЗ 2 н/о н/о +15.4 +5.6 52 +15 +15 1010.2 +15.4 +17.6
18 13.09 ЮЗ 1 н/о н/о +10.9 +6.6 75 +11 +11 1010.3 +10.9 +17.6
21 13.09 штиль 0 н/о н/о +7.0 +5.3 89 +6 +6 1010.0 +7.0 +17.6
00 14.09 штиль 0 н/о н/о +8.1 +6.7 91 +7 +7 1008.8 +7.0 +17.6
03 14.09 СВ 1 н/о н/о +7.7 +6.6 93 +7 +7 1007.6 +6.5 +17.6
06 14.09 СВ 2 н/о н/о +9.5 +7.2 86 +8 +8 1007.9 +6.5
09 14.09 С 2 н/о н/о +16.6 +7.6 55 +17 +17 1007.2 +6.5 +16.8
12 14.09 СЗ 1 н/о н/о +21.2 +5.3 35 +22 +22 комфорт 1005.7 +6.5 +22.1
15 14.09 ЮЗ 2 н/о н/о +20.5 +7.3 42 +22 +22 комфорт 1004.1 +20.5 +23.0
18 14.09 ЮЗ 1 н/о н/о +12.0 +6.3 68 +12 +12 1005.4 +12.0 +23.0
21 14.09 штиль 0 н/о н/о +8.6 +6.4 86 +8 +8 1006.3 +8.6 +23.0
00 15.09 СВ 1 н/о н/о +10.0 +7.0 82 +10 +10 1005.2 +8.5 +23.0
03 15.09 СВ 1 н/о н/о +9.1 +6.8 86 +8 +8 1004.4 +8.5 +23.0
06 15.09 СВ 2 н/о н/о +10.0 +7.2 83 +9 +9 1006.1 +8.2
09 15.09 З 2 н/о н/о +19.0 +7.8 48 +20 +20 1006.4 +8.2 +19.0
12 15.09 СЗ 3 н/о н/о +24.0 +1.2 22 +23 +23 комфорт 1005.0 +8.2 +24.1
15 15.09 З 2 н/о н/о +23.2 +6.6 34 +24 +24 комфорт 1004.5 +23.2 +25.0
18 15.09 ЮВ 1 н/о н/о +14.5 +11.3 81 +15 +15 1006.2 +14.5 +25.0
21 15.09 штиль 0 н/о н/о +11.2 +9.3 88 +11 +11 1006.6 +11.2 +25.0

 

Местоположение метеостанции Малмсбери (Южная Африка): широта -33.46 долгота 18.72 высота над уровнем моря 102 м.

В архиве по умолчанию представлена погода в Малмсбери за последнюю неделю. Архивные данные за месяц целиком и за предыдущие месяцы, начиная с января 2011 года, Вы можете получить, выбрав интересующий диапазон дат из раскрывающегося списка и нажав кнопку "Ввод!".


*Определитесь, кто Вы:
робот инопланетянин человек

Внимание! Время в таблицах - всемирное. Для получения местного времени необходимо прибавить поправку, которая равна 2 ч.

Смотрите также архив погоды в соседних городах и на ближайших метеорологических станциях:

Погода в Парле (Южная Африка) (37 км)
Погода на Роббенэйланде (Южная Африка) (50 км)
Погода в Йестерпланте (Южная Африка) (53 км)
Погода в Кейптаун порту (Южная Африка) (56 км)
Погода в Кейптауне (Южная Африка) (57 км)
Погода в Кейптауне аэропорту АМС (Южная Африка) (57 км)
Погода в Кейптауне (Южная Африка) (61 км)
Погода в Гилбеке (Южная Африка) (63 км)
Погода в Вустере (Южная Африка) (72 км)
Погода в Лангебаанвеге (Южная Африка) (76 км)

Пояснения к столбцам:

Ветер - указаны скорость ветра в м/с - средняя за 10 мин, порывы в срок и между сроками (в фигурных скобках) и направление, откуда дует ветер: С - северный, СВ - северо-восточный, В - восточный, ЮВ - юго-восточный, Ю - южный, ЮЗ - юго-западный, З - западный, СЗ - северо-западный.
Видимость - горизонтальная дальность видимости в метрах или километрах. При видимости от 1 до 10 км при отсутствии осадков обычно наблюдается дымка, при ухудшении видимости до 1 км и менее - туман. В сухую погоду видимость может ухудшаться дымом, пылью или мглою.
Явления - указаны атмосферные явления, наблюдавшиеся в срок или в последний час перед сроком; фигурными скобками обозначены явления, наблюдавшиеся между сроками (за 1-3 часа до срока); квадратными скобками обозначены град или гололедные отложения с указанием их диаметра в мм.
Облачность - указаны через наклонную черту общая и нижняя облачность в баллах и высота нижней границы облаков в метрах; квадратными скобками обозначены формы облаков: Ci - перистые, Cs - перисто-слоистые, Cc - перисто-кучевые, Ac - высококучевые, As - высокослоистые, Sc - слоисто-кучевые, Ns - слоисто-дождевые, Cu - кучевые, Cb - кучево-дождевые. Подробнее классификацию облаков см. в Атласе облаков (PDF).
T - Температура воздуха - температура, измеренная на высоте 2 м над землей.
Td - Температура точки росы - температура, при понижении до которой содержащийся в воздухе водяной пар достигнет насыщения.
f - Относительная влажность воздуха - влажноcть воздуха, измеренная на высоте 2 м над землей.
Te - Эффективная температура - температура, которую ощущает одетый по сезону человек в тени. Характеристика душности погоды. При расчете учитывается влияние влажности воздуха и скорости ветра на теплоощущения человека.
Tes - Эффективная температура на солнце - температура, которую ощущает человек, с поправкой на солнечный нагрев. Характеристика знойности погоды. Зависит от высоты солнца над горизонтом, облачности и скорости ветра. Ночью, в пасмурную погоду, а также при ветре 12 м/с и более поправка равна нулю.
P - Атмосферное давление - приведенное к уровню моря атмосферное давление.
Po - Атмосферное давление - измеренное на уровне метеостанции атмосферное давление.
Tmin - Минимальная температура - минимум температуры воздуха на высоте 2 м над землей.
Tmax - Максимальная температура - максимум температуры воздуха на высоте 2 м над землей.
R - Количество осадков - Количество выпавших осадков за период времени, мм. При наведении курсора мыши на число - период времени, за который выпало указанное количество осадков.
R24 - Количество осадков - Количество выпавших осадков за 24 часа, мм.
S - Снежный покров - Высота снежного покрова, см. При наведении курсора мыши на число - состояние снежного покрова и степень покрытия местности в баллах.